Tracking 32954 objects as of 19-Jan-2026
HD Live streaming from Space Station
objects crossing your sky now

NOAA 16 DEB

Track NOAA 16 DEB now!
10-day predictions


NORAD ID: 41658
Int'l Code: 2000-055NX
Perigee: 595.6 km
Apogee: 605.0 km
Inclination: 98.9 °
Period: 96.5 minutes
Semi major axis: 6971 km
RCS: Unknown
Launch date: September 21, 2000
Source: United States (US)
Launch site: AIR FORCE WESTERN TEST RANGE (AFWTR)

Note: This is SATELLITE DEBRIS
Your satellite tracking list
Your tracking list is empty




NASA's NSSDC Master Catalog

Two Line Element Set (TLE):
1 41658U 00055NX  26018.95221655  .00057792  00000-0  57288-2 0  9998
2 41658  98.8643 204.2146 0006744  97.0801 263.1181 14.91517881 90083
Source of the keplerian elements: AFSPC